Angoon, AK

3:56 AM AKDT on October 16, 2019 (GMT -0800)
Angoon

Weather History for PAGN - May, 2019

Change the Weather History Date:

Thursday, May 23, 2019

  Actual Average (WUND) Record (WUND)
Temperature  
Mean Temperature 48 °F -  
Max Temperature 50 °F - - (-1)
Min Temperature 46 °F - - (-1)
Degree Days  
Heating Degree Days 17    
Moisture  
Dew Point 44 °F    
Average Humidity 84    
Maximum Humidity 89    
Minimum Humidity 80    
Precipitation  
Precipitation 0.00 in - - ()
Sea Level Pressure  
Sea Level Pressure 30.14 in    
Wind  
Wind Speed 1 mph (SW)    
Max Wind Speed 5 mph    
Max Gust Speed -    
Visibility 10 miles    
Events Rain    
Averages and records for this station are not official NWS values.
T = Trace of Precipitation, MM = Missing Value Source: NWS Daily Summary

Daily Weather History Graph

Daily Weather History Graph

Search for Another Location

Airport or City:

Astronomy

May. 23, 2019 Rise Set
Actual Time 4:22 AM AKDT 9:29 PM AKDT
Civil Twilight 3:23 AM AKDT 10:28 PM AKDT
Nautical Twilight 1:27 AM AKDT 12:22 AM AKDT
Astronomical Twilight Sun does not rise Sun does not rise
Moon 1:21 AM AKDT (5/23) 8:29 AM AKDT (5/23)
Length of Visible Light 19h 04m
Length of Day
17h 06m
Waning Gibbous, 76% of the Moon is Illuminated
May 23
Waning Gibbous
May 26
Last Quarter
Jun 3
New
Jun 9
First Quarter
Jun 17
Full

Hourly Weather History & Observations

Time (AKDT) Temp. Dew Point Humidity Pressure Visibility Wind Dir Wind Speed Gust Speed Precip Events Conditions
12:56 AM 48.9 °F 45.0 °F 86% 30.13 in 10.0 mi Calm Calm - N/A   Scattered Clouds
1:56 AM 48.0 °F 45.0 °F 89% 30.12 in 10.0 mi Calm Calm - N/A   Overcast
2:56 AM 48.0 °F 44.1 °F 86% 30.12 in 10.0 mi Calm Calm - N/A   Mostly Cloudy
3:56 AM 48.0 °F 44.1 °F 86% 30.12 in 10.0 mi Calm Calm - N/A   Overcast
4:56 AM 48.9 °F 44.1 °F 83% 30.12 in 10.0 mi Calm Calm - N/A   Overcast
5:56 AM 48.0 °F 45.0 °F 89% 30.12 in 10.0 mi North 4.6 mph - 0.00 in Rain Light Rain
6:56 AM 48.0 °F 44.1 °F 86% 30.12 in 10.0 mi Variable 3.5 mph - 0.00 in Rain Light Rain
7:56 AM 48.0 °F 44.1 °F 86% 30.13 in 10.0 mi Calm Calm - 0.00 in   Overcast
8:56 AM 48.0 °F 44.1 °F 86% 30.13 in 10.0 mi Calm Calm - 0.00 in Rain Light Rain
9:56 AM 48.9 °F 44.1 °F 83% 30.13 in 10.0 mi Calm Calm - 0.00 in   Overcast
10:56 AM 48.0 °F 43.0 °F 83% 30.14 in 10.0 mi WSW 3.5 mph - 0.00 in Rain Light Rain
11:56 AM 48.9 °F 43.0 °F 80% 30.14 in 10.0 mi Calm Calm - 0.00 in   Overcast
12:56 PM 48.0 °F 44.1 °F 86% 30.15 in 10.0 mi SW 4.6 mph - N/A   Overcast
1:56 PM 48.0 °F 43.0 °F 83% 30.14 in 10.0 mi North 3.5 mph - N/A   Overcast
2:56 PM 48.0 °F 43.0 °F 83% 30.14 in 10.0 mi Calm Calm - N/A   Overcast
3:56 PM 48.0 °F 43.0 °F 83% 30.14 in 10.0 mi SW 4.6 mph - N/A   Overcast
4:19 PM 48.2 °F 42.8 °F 82% 30.17 in 10.0 mi Calm Calm - N/A   Overcast
4:56 PM 48.9 °F 43.0 °F 80% 30.14 in 9.0 mi Variable 3.5 mph - N/A   Overcast
5:06 PM 48.2 °F 42.8 °F 82% 30.17 in 10.0 mi Calm Calm - N/A   Overcast
5:56 PM 48.0 °F 44.1 °F 86% 30.14 in 10.0 mi Variable 3.5 mph - N/A   Overcast
6:56 PM 48.9 °F 43.0 °F 80% 30.14 in 10.0 mi Calm Calm - N/A   Overcast
7:56 PM 48.0 °F 44.1 °F 86% 30.14 in 10.0 mi Calm Calm - N/A   Overcast
8:49 PM 48.2 °F 44.6 °F 87% 30.18 in 10.0 mi South 3.5 mph - N/A   Overcast
8:56 PM 48.9 °F 44.1 °F 83% 30.15 in 10.0 mi South 3.5 mph - N/A   Overcast
9:11 PM 48.2 °F 44.6 °F 87% 30.18 in 10.0 mi Calm Calm - N/A   Overcast
9:56 PM 48.9 °F 44.1 °F 83% 30.16 in 10.0 mi Calm Calm - N/A   Overcast
10:28 PM 48.2 °F 42.8 °F 82% 30.19 in 10.0 mi Calm Calm - N/A   Overcast
10:56 PM 48.0 °F 43.0 °F 83% 30.17 in 10.0 mi Calm Calm - N/A   Overcast
11:56 PM 46.9 °F 42.1 °F 83% 30.17 in 10.0 mi Calm Calm - N/A   Overcast